Weather History for KSUW - March, 2014

Change the Weather History Date:

Thursday, March 13, 2014

  Actual Average Record
Temperature  
Mean Temperature 25 °F -  
Max Temperature 45 °F 33 °F 62 °F (2007)
Min Temperature 5 °F 19 °F -5 °F (1955)
Degree Days  
Heating Degree Days 40    
Moisture  
Dew Point 21 °F    
Average Humidity 69    
Maximum Humidity 87    
Minimum Humidity 54    
Precipitation  
Precipitation 0.00 in - - ()
Sea Level Pressure  
Sea Level Pressure 29.70 in    
Wind  
Wind Speed 5 mph (SW)    
Max Wind Speed 16 mph    
Max Gust Speed 22 mph    
Visibility 10 miles    
Events      
Averages and records for this station are not official NWS values.
T = Trace of Precipitation, MM = Missing Value Source: NWS Daily Summary

Daily Weather History Graph

Daily Weather History Graph

Search for Another Location

Airport or City:

Trip Planner

Search our weather history database for the weather conditions in past years. The results will help you decide how hot, cold, wet, or windy it might be!

Date:

Astronomy

Mar. 13, 2014 Rise Set
Actual Time 7:25 AM CDT 7:11 PM CDT
Civil Twilight 6:54 AM CDT 7:41 PM CDT
Nautical Twilight 6:19 AM CDT 8:16 PM CDT
Astronomical Twilight 5:44 AM CDT 8:52 PM CDT
Moon 4:30 PM CDT (3/13) 5:40 AM CDT (3/13)
Length of Visible Light 12h 46m
Length of Day
11h 46m
Waxing Gibbous, 91% of the Moon is Illuminated
Mar 13
Waxing Gibbous
Mar 16
Full
Mar 23
Last Quarter
Mar 30
New
Apr 7
First Quarter

Hourly Weather History & Observations

Time (CDT) Temp. Windchill Dew Point Humidity Pressure Visibility Wind Dir Wind Speed Gust Speed Precip Events Conditions
12:15 AM 5.0 °F - 1.9 °F 87% 30.01 in 10.0 mi Calm Calm - N/A   Clear
12:35 AM 7.7 °F - 3.6 °F 83% 30.00 in 10.0 mi Calm Calm - N/A   Clear
12:55 AM 7.7 °F - 3.4 °F 83% 29.99 in 10.0 mi Calm Calm - N/A   Clear
1:15 AM 6.4 °F - 1.9 °F 82% 29.98 in 10.0 mi Calm Calm - N/A   Clear
1:35 AM 6.6 °F - 3.6 °F 87% 29.97 in 10.0 mi Calm Calm - N/A   Clear
1:55 AM 5.7 °F - 2.3 °F 86% 29.95 in 10.0 mi Calm Calm - N/A   Scattered Clouds
2:15 AM 7.5 °F - 3.4 °F 83% 29.95 in 10.0 mi Calm Calm - N/A   Mostly Cloudy
2:35 AM 8.6 °F - 4.1 °F 82% 29.95 in 10.0 mi Calm Calm - N/A   Overcast
2:55 AM 10.4 °F - 4.1 °F 76% 29.94 in 10.0 mi Calm Calm - N/A   Overcast
3:15 AM 10.9 °F 4.7 °F 4.8 °F 76% 29.94 in 10.0 mi West 3.5 mph - N/A   Overcast
3:35 AM 12.9 °F - 4.8 °F 70% 29.92 in 10.0 mi Calm Calm - N/A   Overcast
3:55 AM 13.6 °F - 5.7 °F 71% 29.91 in 10.0 mi Calm Calm - N/A   Overcast
4:15 AM 15.1 °F 7.7 °F 7.3 °F 71% 29.90 in 10.0 mi SW 4.6 mph - N/A   Overcast
4:35 AM 18.5 °F 9.3 °F 8.4 °F 65% 29.88 in 10.0 mi SW 6.9 mph - N/A   Overcast
4:55 AM 19.8 °F 10.8 °F 8.6 °F 62% 29.87 in 10.0 mi SW 6.9 mph - N/A   Overcast
5:15 AM 20.3 °F 10.6 °F 9.5 °F 63% 29.86 in 10.0 mi SW 8.1 mph - N/A   Overcast
5:35 AM 20.8 °F 11.2 °F 10.0 °F 63% 29.85 in 10.0 mi SW 8.1 mph - N/A   Overcast
5:55 AM 21.2 °F 12.6 °F 10.8 °F 64% 29.85 in 10.0 mi SW 6.9 mph - N/A   Overcast
6:15 AM 21.7 °F 14.3 °F 11.5 °F 65% 29.82 in 10.0 mi SW 5.8 mph - N/A   Overcast
6:35 AM 22.1 °F 14.7 °F 12.0 °F 65% 29.82 in 10.0 mi SW 5.8 mph - N/A   Overcast
6:55 AM 22.6 °F 12.6 °F 13.6 °F 68% 29.81 in 10.0 mi SW 9.2 mph - N/A   Overcast
7:15 AM 23.4 °F 16.2 °F 14.5 °F 69% 29.82 in 10.0 mi WSW 5.8 mph - N/A   Overcast
7:35 AM 23.0 °F 18.4 °F 14.5 °F 70% 29.82 in 10.0 mi West 3.5 mph - N/A   Overcast
7:55 AM 23.5 °F 16.4 °F 14.9 °F 70% 29.82 in 10.0 mi SW 5.8 mph - N/A   Overcast
8:15 AM 23.9 °F 15.8 °F 15.6 °F 71% 29.82 in 10.0 mi SW 6.9 mph - N/A   Overcast
8:35 AM 23.9 °F 14.2 °F 16.0 °F 72% 29.81 in 10.0 mi SW 9.2 mph - N/A   Overcast
8:55 AM 24.3 °F 15.4 °F 16.2 °F 71% 29.79 in 10.0 mi SW 8.1 mph - N/A   Overcast
9:15 AM 24.8 °F 15.3 °F 16.9 °F 72% 29.79 in 10.0 mi SW 9.2 mph - N/A   Overcast
9:35 AM 25.5 °F 16.2 °F 18.1 °F 74% 29.79 in 10.0 mi SW 9.2 mph - N/A   Overcast
9:55 AM 26.4 °F 18.0 °F 19.4 °F 75% 29.78 in 10.0 mi SW 8.1 mph - N/A   Overcast
10:15 AM 27.1 °F 18.2 °F 21.0 °F 78% 29.78 in 10.0 mi WSW 9.2 mph - N/A   Overcast
10:35 AM 27.5 °F 17.4 °F 22.1 °F 80% 29.77 in 10.0 mi SW 11.5 mph - N/A   Overcast
10:55 AM 28.4 °F 19.7 °F 22.6 °F 79% 29.76 in 10.0 mi SW 9.2 mph - N/A   Overcast
11:15 AM 29.3 °F 20.2 °F 23.0 °F 77% 29.75 in 10.0 mi SW 10.4 mph 16.1 mph N/A   Overcast
11:35 AM 30.2 °F 21.9 °F 23.7 °F 77% 29.73 in 10.0 mi SW 9.2 mph - N/A   Mostly Cloudy
11:55 AM 31.1 °F 23.1 °F 23.9 °F 75% 29.71 in 10.0 mi SSW 9.2 mph - N/A   Scattered Clouds
12:15 PM 32.0 °F 23.0 °F 24.1 °F 73% 29.71 in 10.0 mi WSW 11.5 mph - N/A   Clear
12:35 PM 33.3 °F 24.6 °F 25.2 °F 72% 29.71 in 10.0 mi SW 11.5 mph - N/A   Clear
12:55 PM 34.3 °F 27.7 °F 25.7 °F 71% 29.70 in 10.0 mi SW 8.1 mph - N/A   Clear
1:15 PM 35.6 °F 28.6 °F 25.5 °F 67% 29.69 in 10.0 mi SSW 9.2 mph - N/A   Clear
1:35 PM 36.9 °F 30.1 °F 26.1 °F 65% 29.67 in 10.0 mi SW 9.2 mph - N/A   Clear
1:55 PM 38.1 °F 31.7 °F 26.6 °F 63% 29.66 in 10.0 mi SSW 9.2 mph - N/A   Clear
2:15 PM 39.2 °F 32.5 °F 26.8 °F 61% 29.65 in 10.0 mi SW 10.4 mph - N/A   Clear
2:35 PM 39.7 °F 33.7 °F 27.3 °F 61% 29.63 in 10.0 mi SW 9.2 mph - N/A   Clear
2:55 PM 40.8 °F 34.1 °F 27.5 °F 59% 29.62 in 10.0 mi SSW 11.5 mph - N/A   Clear
3:15 PM 42.6 °F 37.2 °F 27.5 °F 55% 29.60 in 10.0 mi SW 9.2 mph - N/A   Clear
3:35 PM 43.2 °F 35.9 °F 28.2 °F 56% 29.58 in 10.0 mi SW 15.0 mph - N/A   Clear
3:55 PM 43.2 °F 37.9 °F 28.6 °F 56% 29.57 in 10.0 mi SW 9.2 mph - N/A   Clear
4:15 PM 43.2 °F 37.4 °F 28.8 °F 57% 29.57 in 10.0 mi SW 10.4 mph - N/A   Clear
4:35 PM 43.7 °F 36.6 °F 28.4 °F 55% 29.56 in 10.0 mi SW 15.0 mph 21.9 mph N/A   Clear
4:55 PM 44.1 °F 37.7 °F 28.8 °F 55% 29.55 in 10.0 mi SSW 12.7 mph 18.4 mph N/A   Clear
5:15 PM 44.1 °F 37.7 °F 28.9 °F 55% 29.54 in 10.0 mi SW 12.7 mph 18.4 mph N/A   Clear
5:35 PM 44.4 °F 39.0 °F 29.3 °F 55% 29.52 in 10.0 mi SW 10.4 mph - N/A   Clear
5:55 PM 45.1 °F 38.1 °F 29.3 °F 54% 29.51 in 10.0 mi SW 16.1 mph 21.9 mph N/A   Clear
6:15 PM 45.0 °F 38.2 °F 29.7 °F 55% 29.51 in 10.0 mi SW 15.0 mph 21.9 mph N/A   Clear
6:35 PM 44.2 °F 39.2 °F 30.0 °F 57% 29.50 in 10.0 mi SW 9.2 mph 19.6 mph N/A   Clear
6:55 PM 43.5 °F 38.3 °F 30.2 °F 59% 29.50 in 10.0 mi SW 9.2 mph - N/A   Clear
7:15 PM 43.7 °F 39.7 °F 30.2 °F 59% 29.51 in 10.0 mi SW 6.9 mph - N/A   Clear
7:35 PM 41.9 °F 37.5 °F 30.6 °F 64% 29.50 in 10.0 mi SW 6.9 mph - N/A   Clear
7:55 PM 41.2 °F 36.0 °F 30.7 °F 66% 29.50 in 10.0 mi SW 8.1 mph - N/A   Clear
8:15 PM 40.8 °F 35.0 °F 30.9 °F 68% 29.49 in 10.0 mi SW 9.2 mph - N/A   Clear
8:35 PM 41.0 °F 35.2 °F 31.1 °F 68% 29.48 in 10.0 mi SSW 9.2 mph - N/A   Clear
8:55 PM 41.0 °F 35.2 °F 31.3 °F 68% 29.47 in 10.0 mi SW 9.2 mph - N/A   Clear
9:15 PM 41.0 °F 35.8 °F 31.6 °F 69% 29.46 in 10.0 mi SW 8.1 mph - N/A   Clear
9:35 PM 40.6 °F 35.4 °F 31.8 °F 71% 29.46 in 10.0 mi SW 8.1 mph - N/A   Clear
9:55 PM 40.1 °F 35.3 °F 32.0 °F 73% 29.45 in 10.0 mi SW 6.9 mph - N/A   Clear
10:15 PM 41.0 °F 37.1 °F 32.7 °F 72% 29.45 in 10.0 mi WSW 5.8 mph - N/A   Clear
10:35 PM 41.2 °F 36.6 °F 33.6 °F 74% 29.44 in 10.0 mi WSW 6.9 mph - N/A   Clear
10:55 PM 41.4 °F 37.6 °F 34.2 °F 76% 29.43 in 10.0 mi WSW 5.8 mph - N/A   Clear
11:15 PM 41.4 °F 36.8 °F 34.2 °F 76% 29.43 in 10.0 mi WSW 6.9 mph - N/A   Clear
11:35 PM 41.0 °F 35.8 °F 34.5 °F 78% 29.43 in 10.0 mi SW 8.1 mph - N/A   Clear
11:55 PM 41.4 °F 36.8 °F 35.2 °F 79% 29.42 in 10.0 mi WSW 6.9 mph - N/A   Clear